Location: El Álamo
(40.2307°N, 3.9945°W)
Time: 04:44:57
(UTC+00:00)

Helios 1B rocket - Pass Details

Date: 19 May 2025
Orbit: 497 x 502 km, 98.2° (Epoch: 23 June)

Event Time Altitude Azimuth Distance (km) Brightness Sun altitude
Exits shadow 20:51:42 10° 185° (S) 1,675 4.4 -13.8°
Maximum altitude 20:55:10 46° 260° (W) 674 3.0 -14.3°
Drops below altitude 10° 20:58:43 10° 335° (NNW) 1,707 6.0 -14.8°
Sets 21:00:52 0° 341° (NNW) 2,597 6.9 -15.1°
